Weather History for El Dorado, AR

Change the Weather History Date:

Tuesday, April 15, 2014

  Actual Average Record
Temperature  
Mean Temperature 46 °F 63 °F  
Max Temperature 59 °F 76 °F 92 °F (1925)
Min Temperature 33 °F 51 °F 31 °F (1980)
Degree Days  
Heating Degree Days 19 4  
Month to date heating degree days 110 78  
Since 1 July heating degree days 3159 2614  
Cooling Degree Days 0 2  
Month to date cooling degree days 21 28  
Year to date cooling degree days 26 56  
Moisture  
Dew Point 32 °F    
Average Humidity 61    
Maximum Humidity 92    
Minimum Humidity 30    
Precipitation  
Precipitation 0.00 in 0.13 in 1.50 in (2012)
Month to date precipitation 5.12 2.00  
Year to date precipitation 13.69 15.84  
Snow  
Snow 0.00 in - - ()
Month to date snowfall 0.0  
Since 1 July snowfall 1.1  
Snow Depth 0.00 in    
Sea Level Pressure  
Sea Level Pressure 30.22 in    
Wind  
Wind Speed 6 mph (NNW)    
Max Wind Speed 17 mph    
Max Gust Speed 26 mph    
Visibility 10 miles    
Events      
T = Trace of Precipitation, MM = Missing Value Source: NWS Daily Summary

Daily Weather History Graph

Daily Weather History Graph

Search for Another Location

Airport:

Trip Planner

Search our weather history database for the weather conditions in past years. The results will help you decide how hot, cold, wet, or windy it might be!

Date:

Astronomy

Apr. 15, 2014 Rise Set
Actual Time 6:41 AM CDT 7:41 PM CDT
Civil Twilight 6:15 AM CDT 8:07 PM CDT
Nautical Twilight 5:45 AM CDT 8:37 PM CDT
Astronomical Twilight 5:14 AM CDT 9:08 PM CDT
Moon 8:21 PM CDT (4/15) 6:50 AM CDT (4/15)
Length of Visible Light 13h 51m
Length of Day
13h 00m
Full, 100% of the Moon is Illuminated
Apr 15
Full
Apr 22
Last Quarter
Apr 29
New
May 6
First Quarter
May 14
Full

Hourly Weather History & Observations

Time (CDT) Temp. Windchill Dew Point Humidity Pressure Visibility Wind Dir Wind Speed Gust Speed Precip Events Conditions
12:53 AM 39.0 °F 34.0 °F 34.0 °F 82% 30.15 in 10.0 mi NW 6.9 mph - N/A   Clear
1:53 AM 37.0 °F 31.6 °F 33.1 °F 86% 30.16 in 10.0 mi NW 6.9 mph - N/A   Clear
2:53 AM 36.0 °F 31.1 °F 33.1 °F 89% 30.18 in 10.0 mi WNW 5.8 mph - N/A   Clear
3:53 AM 36.0 °F 29.6 °F 33.1 °F 89% 30.19 in 10.0 mi NW 8.1 mph - N/A   Clear
4:53 AM 35.1 °F 29.3 °F 32.0 °F 89% 30.21 in 10.0 mi NW 6.9 mph - N/A   Clear
5:53 AM 34.0 °F 28.8 °F 30.0 °F 85% 30.23 in 10.0 mi NW 5.8 mph - N/A   Clear
6:53 AM 33.1 °F 30.0 °F 30.0 °F 89% 30.25 in 10.0 mi Variable 3.5 mph - N/A   Clear
7:53 AM 36.0 °F 31.1 °F 30.0 °F 79% 30.27 in 10.0 mi NNW 5.8 mph - N/A   Clear
8:53 AM 42.1 °F 36.6 °F 28.9 °F 60% 30.29 in 10.0 mi North 9.2 mph - N/A   Clear
9:53 AM 45.0 °F 39.3 °F 27.0 °F 49% 30.30 in 10.0 mi NNE 11.5 mph - N/A   Clear
10:53 AM 48.0 °F - 28.0 °F 46% 30.30 in 10.0 mi North 9.2 mph - N/A   Clear
11:53 AM 51.1 °F - 28.0 °F 41% 30.28 in 10.0 mi NNE 10.4 mph 19.6 mph N/A   Clear
12:53 PM 53.1 °F - 28.9 °F 40% 30.26 in 10.0 mi NNW 12.7 mph - N/A   Clear
1:53 PM 55.0 °F - 30.0 °F 38% 30.25 in 10.0 mi NNE 9.2 mph 16.1 mph N/A   Clear
2:53 PM 55.0 °F - 28.9 °F 37% 30.23 in 10.0 mi North - - N/A   Clear
3:53 PM 57.0 °F - 30.0 °F 36% 30.19 in 10.0 mi NNW 5.8 mph - N/A   Clear
4:53 PM 57.9 °F - 28.9 °F 33% 30.18 in 10.0 mi WNW 6.9 mph - N/A   Clear
5:53 PM 57.0 °F - 27.0 °F 32% 30.17 in 10.0 mi NNE 6.9 mph - N/A   Clear
6:53 PM 55.9 °F - 28.9 °F 36% 30.17 in 10.0 mi ENE 4.6 mph - N/A   Clear
7:53 PM 46.9 °F - 41.0 °F 80% 30.18 in 10.0 mi Calm Calm - N/A   Clear
8:53 PM 45.0 °F - 39.9 °F 82% 30.20 in 10.0 mi Calm Calm - N/A   Clear
9:53 PM 42.1 °F - 39.0 °F 89% 30.22 in 10.0 mi Calm Calm - N/A   Clear
10:53 PM 43.0 °F 39.5 °F 36.0 °F 76% 30.23 in 10.0 mi ESE 5.8 mph - N/A   Clear
11:53 PM 42.1 °F - 36.0 °F 79% 30.22 in 10.0 mi Calm Calm - N/A   Clear